Location: Newark
(41.9364°N, 2.8061°E)
Time: 21:30:30
(UTC+00:00)

A-11 Canister half - Pass Details

Date: 25 February 2020
Orbit: 1516 x 1683 km, 47.2° (Epoch: 09 April)

Event Time Altitude Azimuth Distance (km) Brightness Sun altitude
Rises 22:56:54 0° 292° (WNW) 4,777 12.0 -54.1°
Reaches altitude 10° 23:01:03 10° 277° (W) 3,760 11.2 -54.5°
Enters shadow 23:01:34 11° 274° (W) 3,651 11.1 -54.5°
